UAL155 PKWA-PKMJ

Flight info

Callsign UAL155
Flight time 0h 30m
Altitude 27000
Route CURCH WOZTI
Aircraft B738/M-SDE2E3FGHIRWXY/LB1

Departure

Time 2026-04-17 14:16
Airport Bucholz Army Air Field (PKWA)

Arrival

Time 2026-04-17 14:46
Airport Marshall Islands International Airport (PKMJ)
Time Latitude Longitude Altitude Speed Heading
2026-04-17 13:55 8.71928 167.72149 -50 ft 0 kts 341°
2026-04-17 13:58 8.71928 167.72150 -50 ft 0 kts 341°
2026-04-17 14:13 8.71929 167.72149 -37 ft 1 kts 341°
2026-04-17 14:13 8.71953 167.72146 -54 ft 6 kts
2026-04-17 14:13 8.71973 167.72179 -47 ft 6 kts 75°
2026-04-17 14:14 8.71978 167.72220 -37 ft 6 kts 101°
2026-04-17 14:14 8.71949 167.72246 -37 ft 6 kts 156°
2026-04-17 14:14 8.71912 167.72262 -44 ft 6 kts 156°
2026-04-17 14:14 8.71862 167.72276 -46 ft 12 kts 168°
2026-04-17 14:15 8.71782 167.72293 -43 ft 11 kts 168°
2026-04-17 14:15 8.71748 167.72337 -43 ft 10 kts 54°
2026-04-17 14:15 8.71765 167.72367 -38 ft 1 kts 71°
2026-04-17 14:15 8.71772 167.72391 -43 ft 22 kts 72°
2026-04-17 14:16 8.71904 167.72818 -39 ft 103 kts 73°
2026-04-17 14:16 8.72176 167.73716 23 ft 161 kts 73°
2026-04-17 14:16 8.72518 167.74804 986 ft 152 kts 73°
2026-04-17 14:16 8.72850 167.75813 1838 ft 154 kts 71°
2026-04-17 14:17 8.73011 167.76946 2287 ft 180 kts 101°
2026-04-17 14:17 8.72366 167.78109 2789 ft 199 kts 132°
2026-04-17 14:17 8.71491 167.79202 3387 ft 206 kts 114°
2026-04-17 14:17 8.70882 167.80564 3883 ft 222 kts 111°
2026-04-17 14:18 8.70222 167.82051 4414 ft 239 kts 113°
2026-04-17 14:18 8.69483 167.83651 4866 ft 259 kts 113°
2026-04-17 14:18 8.68731 167.85284 5816 ft 257 kts 114°
2026-04-17 14:18 8.67971 167.86928 6620 ft 260 kts 114°
2026-04-17 14:19 8.67175 167.88629 7132 ft 276 kts 114°
2026-04-17 14:19 8.66340 167.90379 7966 ft 274 kts 115°
2026-04-17 14:19 8.65523 167.92094 8962 ft 269 kts 114°
2026-04-17 14:19 8.64690 167.93819 9627 ft 278 kts 115°
2026-04-17 14:20 8.62484 167.98240 11174 ft 295 kts 116°
2026-04-17 14:20 8.58480 168.06289 13091 ft 340 kts 116°
2026-04-17 14:20 8.54127 168.15086 15352 ft 358 kts 115°
2026-04-17 14:20 8.49676 168.24083 17675 ft 368 kts 115°
2026-04-17 14:21 8.44999 168.33528 19638 ft 379 kts 115°
2026-04-17 14:21 8.40222 168.43173 21572 ft 388 kts 115°
2026-04-17 14:21 8.35315 168.53073 23279 ft 399 kts 116°
2026-04-17 14:21 8.30299 168.63185 24900 ft 402 kts 115°
2026-04-17 14:22 8.25467 168.73336 26558 ft 403 kts 113°
2026-04-17 14:22 8.20787 168.83628 26997 ft 403 kts 113°
2026-04-17 14:22 8.16058 168.93905 26973 ft 404 kts 113°
2026-04-17 14:22 8.11304 169.04188 26933 ft 405 kts 113°
2026-04-17 14:23 8.06535 169.14494 26922 ft 405 kts 113°
2026-04-17 14:23 8.01774 169.24781 26919 ft 404 kts 113°
2026-04-17 14:23 7.97029 169.35025 26919 ft 402 kts 114°
2026-04-17 14:23 7.92358 169.45102 26916 ft 401 kts 114°
2026-04-17 14:24 7.87636 169.55285 26921 ft 399 kts 113°
2026-04-17 14:24 7.82998 169.65276 26856 ft 384 kts 113°
2026-04-17 14:24 7.78550 169.74848 25787 ft 370 kts 113°
2026-04-17 14:24 7.74238 169.84130 24391 ft 361 kts 113°
2026-04-17 14:25 7.72371 169.88146 23645 ft 362 kts 113°
2026-04-17 14:25 7.71306 169.90437 23234 ft 361 kts 113°
2026-04-17 14:25 7.70255 169.92696 22831 ft 359 kts 113°
2026-04-17 14:25 7.69198 169.94967 22450 ft 356 kts 114°
2026-04-17 14:26 7.68149 169.97221 22076 ft 354 kts 113°
2026-04-17 14:26 7.67109 169.99456 21710 ft 351 kts 113°
2026-04-17 14:26 7.66074 170.01679 21351 ft 349 kts 113°
2026-04-17 14:26 7.65047 170.03886 20990 ft 347 kts 113°
2026-04-17 14:27 7.64026 170.06079 20633 ft 345 kts 113°
2026-04-17 14:27 7.63009 170.08263 20283 ft 343 kts 113°
2026-04-17 14:27 7.61997 170.10434 19928 ft 341 kts 113°
2026-04-17 14:27 7.60990 170.12596 19577 ft 340 kts 113°
2026-04-17 14:28 7.59986 170.14750 19217 ft 339 kts 113°
2026-04-17 14:28 7.59000 170.16865 18864 ft 338 kts 113°
2026-04-17 14:28 7.57999 170.19015 18515 ft 337 kts 113°
2026-04-17 14:28 7.57003 170.21151 18146 ft 336 kts 113°
2026-04-17 14:29 7.56009 170.23283 17763 ft 335 kts 113°
2026-04-17 14:29 7.55021 170.25404 17396 ft 333 kts 113°
2026-04-17 14:29 7.54039 170.27507 17039 ft 331 kts 113°
2026-04-17 14:29 7.53066 170.29595 16703 ft 328 kts 113°
2026-04-17 14:30 7.52096 170.31673 16350 ft 326 kts 113°
2026-04-17 14:30 7.51133 170.33738 16009 ft 324 kts 113°
2026-04-17 14:30 7.50177 170.35786 15674 ft 322 kts 113°
2026-04-17 14:30 7.49225 170.37826 15338 ft 321 kts 113°
2026-04-17 14:31 7.48279 170.39852 15009 ft 319 kts 113°
2026-04-17 14:31 7.47351 170.41841 14681 ft 317 kts 114°
2026-04-17 14:31 7.46414 170.43848 14351 ft 316 kts 114°
2026-04-17 14:31 7.45481 170.45846 14011 ft 315 kts 113°
2026-04-17 14:32 7.44550 170.47842 13673 ft 314 kts 114°
2026-04-17 14:32 7.43621 170.49829 13298 ft 312 kts 114°
2026-04-17 14:32 7.42699 170.51802 12960 ft 310 kts 114°
2026-04-17 14:32 7.41782 170.53763 12628 ft 308 kts 114°
2026-04-17 14:33 7.40873 170.55709 12299 ft 306 kts 114°
2026-04-17 14:33 7.39970 170.57642 11982 ft 304 kts 114°
2026-04-17 14:33 7.39073 170.59561 11655 ft 301 kts 114°
2026-04-17 14:33 7.38183 170.61467 11337 ft 299 kts 114°
2026-04-17 14:34 7.37296 170.63363 11018 ft 298 kts 114°
2026-04-17 14:34 7.36429 170.65218 10707 ft 296 kts 114°
2026-04-17 14:34 7.35554 170.67090 10398 ft 294 kts 114°
2026-04-17 14:34 7.34686 170.68947 10152 ft 290 kts 114°
2026-04-17 14:35 7.33837 170.70761 10025 ft 282 kts 114°
2026-04-17 14:35 7.33013 170.72523 9828 ft 277 kts 114°
2026-04-17 14:35 7.32468 170.73688 9613 ft 276 kts 114°
2026-04-17 14:35 7.31653 170.75432 9320 ft 274 kts 114°
2026-04-17 14:36 7.30574 170.77737 8930 ft 272 kts 114°
2026-04-17 14:36 7.30029 170.78903 8734 ft 271 kts 114°
2026-04-17 14:36 7.29235 170.80598 8452 ft 270 kts 114°
2026-04-17 14:36 7.28426 170.82293 8170 ft 268 kts 117°
2026-04-17 14:37 7.27278 170.83773 7883 ft 269 kts 131°
2026-04-17 14:37 7.25966 170.85114 7589 ft 268 kts 132°
2026-04-17 14:37 7.24652 170.86442 7304 ft 266 kts 132°
2026-04-17 14:37 7.23347 170.87768 7024 ft 265 kts 132°
2026-04-17 14:38 7.22057 170.89086 6740 ft 264 kts 132°
2026-04-17 14:38 7.20773 170.90402 6473 ft 262 kts 131°
2026-04-17 14:38 7.19496 170.91717 6192 ft 262 kts 131°
2026-04-17 14:38 7.18243 170.93010 5940 ft 260 kts 131°
2026-04-17 14:39 7.16985 170.94309 5676 ft 258 kts 131°
2026-04-17 14:39 7.15739 170.95596 5419 ft 256 kts 131°
2026-04-17 14:39 7.14497 170.96881 5146 ft 255 kts 131°
2026-04-17 14:39 7.13260 170.98161 4879 ft 254 kts 131°
2026-04-17 14:40 7.12029 170.99434 4628 ft 253 kts 131°
2026-04-17 14:40 7.10801 171.00705 4356 ft 252 kts 131°
2026-04-17 14:40 7.09575 171.01972 4079 ft 252 kts 130°
2026-04-17 14:40 7.08362 171.03227 3924 ft 246 kts 131°
2026-04-17 14:41 7.07200 171.04456 3795 ft 239 kts 129°
2026-04-17 14:41 7.06091 171.05665 3682 ft 231 kts 129°
2026-04-17 14:41 7.05037 171.06813 3609 ft 218 kts 129°
2026-04-17 14:41 7.04035 171.07903 3496 ft 206 kts 129°
2026-04-17 14:42 7.03090 171.08937 3324 ft 196 kts 126°
2026-04-17 14:42 7.02543 171.10101 3125 ft 182 kts 97°
2026-04-17 14:42 7.02614 171.11331 2928 ft 173 kts 75°
2026-04-17 14:42 7.02901 171.12482 2728 ft 167 kts 75°
2026-04-17 14:43 7.03178 171.13628 2556 ft 169 kts 76°
2026-04-17 14:43 7.03458 171.14782 2346 ft 169 kts 76°
2026-04-17 14:43 7.03735 171.15916 2120 ft 163 kts 76°
2026-04-17 14:43 7.04000 171.16998 1942 ft 154 kts 77°
2026-04-17 14:44 7.04249 171.18018 1710 ft 147 kts 75°
2026-04-17 14:44 7.04495 171.19023 1511 ft 149 kts 76°
2026-04-17 14:44 7.04741 171.20026 1299 ft 146 kts 77°
2026-04-17 14:44 7.04985 171.21020 1109 ft 144 kts 76°
2026-04-17 14:45 7.05226 171.22003 906 ft 145 kts 76°
2026-04-17 14:45 7.05468 171.22991 764 ft 146 kts 75°
2026-04-17 14:45 7.05719 171.24001 523 ft 148 kts 75°
2026-04-17 14:45 7.05962 171.24991 306 ft 145 kts 76°
2026-04-17 14:46 7.06198 171.25969 97 ft 142 kts 75°
2026-04-17 14:46 7.06427 171.26902 0 ft 121 kts 76°
2026-04-17 14:46 7.06577 171.27515 0 ft 59 kts 76°
2026-04-17 14:46 7.06655 171.27836 1 ft 42 kts 76°
2026-04-17 14:47 7.06697 171.28001 0 ft 19 kts 75°
2026-04-17 14:47 7.06716 171.28062 1 ft 6 kts 56°
2026-04-17 14:47 7.06737 171.28081 1 ft 2 kts 33°
2026-04-17 14:47 7.06740 171.28083 1 ft 0 kts 31°
2026-04-17 14:48 7.06766 171.28089 2 ft 6 kts
2026-04-17 14:48 7.06793 171.28097 3 ft 4 kts 47°
2026-04-17 14:48 7.06806 171.28120 3 ft 4 kts 62°
2026-04-17 14:48 7.06825 171.28136 4 ft 4 kts
2026-04-17 14:49 7.06836 171.28118 4 ft 3 kts 268°
2026-04-17 14:49 7.06824 171.28109 4 ft 0 kts 200°